sat.trackr.live / text

‹ back to catalog

STARLINK-31890

NORAD 59785 · 2024-093D

PAYLOAD ACTIVE UNKNOWN

§ Identity

Operator
Country
US
Launch date
2024-05-18
Launch site
AFETR
Launch vehicle
Mass (kg)
RCS (m²)

Purposes: comms

External: N2YO · Heavens-Above · Gunter

§ Orbital elements

Epoch: 2026-05-24T23:40:05.337696Z

Period
94.27 min
Inclination
43.0011°
Eccentricity
0.0001252
Mean motion
15.27574753 rev/d
Perigee alt
482.2 km
Apogee alt
483.9 km
Semi-major
6,861.2 km
B*
2.1325e-5
RAAN
134.5832°
Arg perigee
271.9375°
Mean anomaly
88.1333°
Rev number
11,440

§ Raw data

STARLINK-318901 59785U 24093D   26144.98617289  .00000325  00000+0  21325-4 0  99952 59785  43.0011 134.5832 0001252 271.9375  88.1333 15.27574753114407

JSON: /api/v1/satellites/59785 · /tle

For live sub-satellite position, see the globe view (requires WebGL).

§ Visibility from observer

Set your observer location to see the next 7 days of passes ≥ 10°. The values pass through the URL so the page stays shareable.

No JS? Fill the form by hand. The geolocation button needs JavaScript.